ATLAS 5 CENTAUR DEB, 57595

Orbit data source: Space-Track

ATLAS 5 CENTAUR DEB, 57595 is space debris in HEO originally from a launch on Wed, 17 Oct 2018 UTC launched from the Air Force Eastern Test Range (AFETR). Debris objects in space refer to the collection of defunct objects orbiting the Earth. Examples of debris include non-operational satellites, rocket bodies, and fragments generated from explosions, collisions, or faulty payload assembly.

Loading next visibility...
Identifier
57595, 2018-079HW
Orbit
HEO
Country
Flag of USUS
Related business
Flag of USUnited Launch Alliance/Lockheed Martin (US)
Manufacturer
ULA Decatur
Mission
Spacecraft
Bus & Motor
Unknown
Mass
Unknown
Launch date (UTC)
2018-10-17 (7 years ago)
Launch vehicle
Unknown
Launch site
Air Force Eastern Test Range (AFETR)
Object type
Payload
Rocket body
Debris
Shape & HBR
Unknown shape, 1.1 m
Radar Cross Section
RCS unknown

Expand to show TLE details & history
Last TLE update: 1 week ago

TLE from 1 week ago
0 ATLAS 5 CENTAUR DEB
1 57595U 18079HW  26026.56272796 -.00000134  00000-0  00000-0 0  9995
2 57595  12.4624  82.7417 4692305 219.7613  94.1457  1.69244682 25873
Epoch: 2026-01-26T13:30Z
TLE epoch observation values (Epoch: 2026-01-26T13:30:19.695Z)
Latitude
Longitude
114.3564°
Altitude
29,917.952 km
Speed
2.926 km/s
True Right ascension
05h 31m 10s
True Declination
0° 00' 00"
Sunlit
Object was in daylight at epoch
Visualization orbit readout
Latitude
Unknown
Longitude
Unknown
Altitude
Unknown
Speed
Unknown
Apparent Right ascension
Unknown
Apparent Declination
Unknown
Sunlit
N/A
Visualization observer readout
Local Sidereal Time
03:19:44
Azimuth
Unknown
Elevation
Unknown
Doppler factor
Unknown
Orbital elements
Apogee altitude
37,324.86 km
Perigee altitude
9,409.868 km
Semi-major axis
29,745.501 km
Eccentricity
0.46923
Inclination
12.4624°
RAAN
82.7417°
Arg. of periapsis
219.7613°
True anomaly
140.21711°
Mean anomaly
94.1457°
Eccentric anomaly
117.90465°
Mean motion
0.42307 °/min
Orbital period
850.92 mins
BSTAR
0
Loading maneuver chart data...
Computing Atmospheric mass density...

Documentation

Showing up to 5 results
|